Flag for U.S.A. Weather past 2 weeks in Compton, California, U.S.A.

Now
60 °F

Low clouds.


Feels Like: 60 °F
Forecast: 56 / 73 °F
Wind: No wind

Location: Hawthorne Municipal Airport

Current Time: Mar 31, 2015 at 4:44:51 AM

Latest Report: Mar 31, 2015 at 3:53 AM


Visibility: 7 mi

Pressure: 29.98 "Hg

Humidity: 83%

Dew point: 55 °F

Location of ComptonLocation

Historic Weather in Compton — Graph

°F

Compton temperature yesterday

Maximum temperature yesterday: 73 °F (at 11:53 AM)
Minimum temperature yesterday: 60 °F (at 3:53 AM)
Average temperature yesterday: 64 °F

Past Weeks' High & Low Weather Summary

 TemperatureHumidityPressure
High89 °F (Mar 16, 12:53 PM)96% (Mar 29, 2:53 AM)30.19 "Hg (Mar 29, 2:53 AM)
Low59 °F (Mar 23, 3:53 AM)12% (Mar 16, 12:53 PM)29.87 "Hg (Mar 16, 5:53 PM)
Average68 °F63%30.03 "Hg
* Reported Mar 16 2:53 AM — Mar 31 2:53 AM, Compton, Weather by CustomWeather, © 2015

Note: Actual official high and low records may vary slightly from our data, if they occured in-between our weather recording intervals... More about our weather records

Advertising

Compton weather history for previous 24 hours

 ConditionsComfort  
Time TempWeatherWind HumidityBarometerVisibility
2:53 AM
Tue, Mar 31
59 °FOvercast.No wind84%29.99 "Hg5 mi
1:53 AM60 °FClear.No wind80%29.99 "Hg6 mi
12:53 AM59 °FLow clouds.No wind84%30.01 "Hg6 mi
11:53 PM
Mon, Mar 30
60 °FLow clouds.3 mph83%30.01 "Hg7 mi
10:53 PM60 °FLow clouds.5 mph83%30.01 "Hg7 mi
9:53 PM60 °FLow clouds.8 mph83%30.00 "Hg8 mi
8:53 PM60 °FLow clouds.8 mph86%30.00 "Hg7 mi
8:00 PM61 °FLow clouds.6 mph83%29.98 "Hg10 mi
6:53 PM65 °FPassing clouds.6 mph76%29.95 "Hg10 mi
5:53 PM67 °FSunny.9 mph71%29.96 "Hg10 mi
4:53 PM68 °FSunny.12 mph65%29.96 "Hg10 mi
3:53 PM70 °FFog.12 mph61%29.96 "Hg10 mi
2:53 PM70 °FFog.12 mph61%29.98 "Hg10 mi
1:53 PM71 °FFog.12 mph59%30.00 "Hg10 mi
12:53 PM71 °FFog.10 mph59%30.02 "Hg8 mi
11:53 AM73 °FFog.3 mph55%30.03 "Hg4 mi
10:53 AM70 °FFog.No wind61%30.03 "Hg5 mi
9:53 AM65 °FFog.5 mph73%30.03 "Hg3 mi
9:00 AM62 °FFog.No wind80%30.04 "Hg4 mi
7:53 AM62 °FFog.No wind83%30.03 "Hg3 mi
6:53 AM61 °FFog.3 mph87%30.01 "Hg4 mi
5:53 AM61 °FLow clouds.3 mph87%30.00 "Hg4 mi
4:53 AM60 °FPassing clouds.No wind86%29.99 "Hg6 mi
Weather by CustomWeather, © 2015

See weather overviewHow to use our weather pages